Weather History for K9L2 - August, 2014

Change the Weather History Date:

Wednesday, August 20, 2014

  Actual Average (KEDW) Record (KEDW)
Temperature  
Mean Temperature 74 °F -  
Max Temperature 91 °F 96 °F 105 °F (2015)
Min Temperature 59 °F 63 °F 55 °F (1998)
Cooling Degree Days 9    
Growing Degree Days 24 (Base 50)    
Moisture  
Dew Point 39 °F    
Average Humidity 30    
Maximum Humidity 51    
Minimum Humidity 11    
Precipitation  
Precipitation 0.00 in - - ()
Sea Level Pressure  
Sea Level Pressure 29.86 in    
Wind  
Wind Speed 10 mph (SSW)    
Max Wind Speed 17 mph    
Max Gust Speed -    
Visibility 10 miles    
Events Thunderstorm    
Averages and records for this station are not official NWS values.
T = Trace of Precipitation, MM = Missing Value Source: NWS Daily Summary

Daily Weather History Graph

Daily Weather History Graph

Search for Another Location

Airport or City:

Trip Planner

Search our weather history database for the weather conditions in past years. The results will help you decide how hot, cold, wet, or windy it might be!

Date:

Astronomy

Aug. 20, 2014 Rise Set
Actual Time 6:15 AM PDT 7:33 PM PDT
Civil Twilight 5:48 AM PDT 8:00 PM PDT
Nautical Twilight 5:17 AM PDT 8:31 PM PDT
Astronomical Twilight 4:44 AM PDT 9:04 PM PDT
Moon 2:03 AM PDT (8/20) 4:18 PM PDT (8/20)
Length of Visible Light 14h 11m
Length of Day
13h 18m
Waning Crescent, 20% of the Moon is Illuminated
Aug 20
Waning Crescent
Aug 25
New
Sep 2
First Quarter
Sep 8
Full
Sep 15
Last Quarter

Hourly Weather History & Observations

Time (PDT) Temp. Dew Point Humidity Pressure Visibility Wind Dir Wind Speed Gust Speed Precip Events Conditions
12:55 AM 66.9 °F 46.0 °F 47% 29.81 in 10.0 mi SW 16.1 mph - N/A   Clear
1:55 AM 66.9 °F 44.1 °F 44% 29.81 in 10.0 mi SW 13.8 mph - N/A   Clear
2:55 AM 64.9 °F 43.0 °F 45% 29.82 in 10.0 mi SSW 9.2 mph - N/A   Clear
3:55 AM 64.0 °F 43.0 °F 46% 29.81 in 10.0 mi SSW 11.5 mph - N/A   Clear
4:55 AM 63.0 °F 42.1 °F 46% 29.83 in 10.0 mi South 8.1 mph - N/A   Clear
5:55 AM 60.1 °F 42.1 °F 51% 29.85 in 10.0 mi SSE 4.6 mph - N/A   Clear
6:55 AM 59.0 °F 41.0 °F 51% 29.89 in 10.0 mi South 4.6 mph - N/A   Clear
7:55 AM 63.0 °F 44.1 °F 50% 29.91 in 10.0 mi South 6.9 mph - N/A   Clear
8:55 AM 69.1 °F 45.0 °F 42% 29.91 in 10.0 mi South 5.8 mph - N/A   Clear
9:55 AM 73.0 °F 44.1 °F 35% 29.91 in 10.0 mi South 9.2 mph - N/A   Clear
10:55 AM 78.1 °F 39.0 °F 25% 29.92 in 10.0 mi South 3.5 mph - N/A   Clear
11:55 AM 82.9 °F 34.0 °F 17% 29.91 in 10.0 mi Variable 6.9 mph - N/A   Clear
12:55 PM 86.0 °F 25.0 °F 11% 29.88 in 10.0 mi WNW 4.6 mph - N/A   Clear
1:55 PM 86.0 °F 28.9 °F 13% 29.86 in 10.0 mi Calm Calm - N/A   Clear
2:55 PM 87.1 °F 28.0 °F 12% 29.83 in 10.0 mi South 4.6 mph - N/A   Clear
3:55 PM 89.1 °F 33.1 °F 14% 29.81 in 10.0 mi WSW 4.6 mph - N/A   Clear
4:22 PM 89.6 °F 33.8 °F 14% 29.87 in 10.0 mi SSE 9.2 mph - N/A Thunderstorm Thunderstorm
4:55 PM 88.0 °F 35.1 °F 15% 29.82 in 10.0 mi SE 6.9 mph - N/A   Clear
5:55 PM 88.0 °F 36.0 °F 16% 29.82 in 10.0 mi SSE 11.5 mph - N/A   Clear
6:36 PM 86.0 °F 37.4 °F 18% 29.87 in 10.0 mi SW 17.3 mph - N/A   Scattered Clouds
6:55 PM 84.0 °F 39.0 °F 20% 29.83 in 10.0 mi SW 16.1 mph - N/A   Mostly Cloudy
7:55 PM 79.0 °F 39.9 °F 25% 29.85 in 10.0 mi SW 13.8 mph - N/A   Clear
8:55 PM 75.9 °F 37.0 °F 24% 29.86 in 10.0 mi SW 12.7 mph - N/A   Clear
9:55 PM 75.0 °F 44.1 °F 33% 29.87 in 10.0 mi WSW 12.7 mph - N/A   Clear
10:55 PM 73.9 °F 42.1 °F 32% 29.88 in 10.0 mi SW 8.1 mph - N/A   Clear
11:55 PM 72.0 °F 41.0 °F 33% 29.88 in 10.0 mi South 10.4 mph - N/A   Clear